This demonstration page uses our WeatherBlox Daily Observations layout. Learn more.

Left ArrowRight Arrow

Hourly Observations for April 14, 2017

Temp ( °F °C ) Dew Point ( °F °C ) Humidity (%) Winds ( mph kmh ) Pressure ( in mb ) Visibility ( mi km ) Precip ( " mm )
12:10 am 00:10 Clear 54 12 41 5 63 63 N N/A 30.39 1029 10 16 N/A
12:35 am 00:35 Clear 50 10 43 6 76 76 N N/A 30.42 1030 10 16 N/A
12:55 am 00:55 Clear 52 11 43 6 72 72 N N/A 30.42 1030 10 16 N/A
1:15 am 01:15 Clear 50 10 43 6 76 76 N N/A 30.42 1030 10 16 N/A
1:35 am 01:35 Clear 46 8 45 7 93 93 N N/A 30.42 1030 10 16 N/A
1:55 am 01:55 Clear 46 8 43 6 87 87 N N/A 30.42 1030 10 16 N/A
2:15 am 02:15 Partly Cloudy 46 8 45 7 93 93 N N/A 30.39 1029 10 16 N/A
2:35 am 02:35 Mostly Cloudy 46 8 43 6 87 87 N N/A 30.39 1029 10 16 N/A
2:55 am 02:55 Partly Cloudy 46 8 43 6 87 87 N N/A 30.39 1029 10 16 N/A
3:15 am 03:15 Mostly Cloudy 46 8 43 6 87 87 N N/A 30.39 1029 10 16 N/A
3:35 am 03:35 Cloudy 46 8 43 6 87 87 N N/A 30.39 1029 10 16 N/A
3:55 am 03:55 Cloudy 48 9 43 6 82 82 N N/A 30.39 1029 10 16 N/A
4:15 am 04:15 Cloudy 50 10 43 6 76 76 N N/A 30.39 1029 10 16 N/A
4:35 am 04:35 Mostly Cloudy 46 8 43 6 87 87 N N/A 30.39 1029 10 16 N/A
4:55 am 04:55 Mostly Cloudy 46 8 43 6 87 87 N N/A 30.39 1029 10 16 N/A
5:15 am 05:15 Partly Cloudy 46 8 43 6 87 87 NNW 3 6 30.39 1029 10 16 N/A
5:35 am 05:35 Clear 46 8 43 6 87 87 N N/A 30.39 1029 10 16 N/A
5:55 am 05:55 Clear 46 8 43 6 87 87 N N/A 30.39 1029 10 16 N/A
6:15 am 06:15 Clear 48 9 43 6 82 82 N N/A 30.39 1029 10 16 N/A
6:35 am 06:35 Mostly Cloudy 46 8 41 5 82 82 NNE 3 6 30.39 1029 10 16 N/A
6:55 am 06:55 Cloudy 50 10 41 5 71 71 N N/A 30.39 1029 10 16 N/A
7:15 am 07:15 Cloudy 50 10 43 6 76 76 N N/A 30.42 1030 10 16 N/A
7:35 am 07:35 Cloudy 50 10 43 6 76 76 N N/A 30.42 1030 10 16 N/A
7:55 am 07:55 Cloudy 50 10 43 6 76 76 N N/A 30.42 1030 10 16 N/A
8:15 am 08:15 Cloudy 50 10 43 6 76 76 NE 3 6 30.42 1030 10 16 N/A
8:35 am 08:35 Cloudy 52 11 41 5 67 67 ENE 3 6 30.42 1030 10 16 N/A
8:55 am 08:55 Cloudy 54 12 41 5 63 63 ENE 5 7 30.42 1030 10 16 N/A
9:15 am 09:15 Partly Cloudy 55 13 41 5 59 59 E 7 11 30.42 1030 10 16 N/A
9:35 am 09:35 Partly Cloudy 55 13 41 5 59 59 E 9 15 30.42 1030 10 16 N/A
9:55 am 09:55 Partly Cloudy 57 14 41 5 55 55 E 7 11 30.39 1029 10 16 N/A
10:15 am 10:15 Sunny 59 15 41 5 51 51 undefined N/A 30.39 1029 10 16 N/A
10:35 am 10:35 Sunny 61 16 41 5 48 48 SSE 5 7 30.39 1029 10 16 N/A
10:55 am 10:55 Sunny 63 17 41 5 45 45 ESE 6 9 30.39 1029 10 16 N/A
11:15 am 11:15 Sunny 63 17 41 5 45 45 ENE 6 9 30.36 1028 10 16 N/A
11:35 am 11:35 Sunny 64 18 41 5 43 43 SE 7 11 30.36 1028 10 16 N/A
11:55 am 11:55 Sunny 64 18 41 5 43 43 SSE 7 11 30.36 1028 10 16 N/A
12:15 pm 12:15 Partly Cloudy 68 20 41 5 38 38 SSE 3 6 30.36 1028 10 16 N/A
12:35 pm 12:35 Mostly Cloudy 68 20 41 5 38 38 SE 3 6 30.36 1028 10 16 N/A
12:55 pm 12:55 Mostly Cloudy 68 20 41 5 38 38 ENE 7 11 30.36 1028 10 16 N/A
1:15 pm 13:15 Mostly Cloudy with Haze 68 20 41 5 38 38 SE 9 15 30.33 1027 3 5 N/A
1:35 pm 13:35 Partly Cloudy 70 21 43 6 38 38 SSE 7 11 30.33 1027 10 16 N/A
1:55 pm 13:55 Partly Cloudy 70 21 43 6 38 38 ESE 3 6 30.33 1027 10 16 N/A
2:15 pm 14:15 Partly Cloudy 72 22 43 6 36 36 N N/A 30.33 1027 10 16 N/A
2:35 pm 14:35 Mostly Cloudy 70 21 43 6 38 38 E 3 6 30.33 1027 10 16 N/A
2:55 pm 14:55 Mostly Cloudy 70 21 43 6 38 38 N N/A 30.30 1026 10 16 N/A
3:15 pm 15:15 Partly Cloudy 72 22 43 6 36 36 ESE 5 7 30.30 1026 10 16 N/A
3:35 pm 15:35 Partly Cloudy 72 22 43 6 36 36 E 3 6 30.30 1026 10 16 N/A
3:55 pm 15:55 Sunny 72 22 45 7 38 38 ENE 3 6 30.30 1026 10 16 N/A
4:15 pm 16:15 Partly Cloudy 72 22 43 6 36 36 ENE 7 11 30.30 1026 10 16 N/A
4:35 pm 16:35 Partly Cloudy 72 22 43 6 36 36 ESE 7 11 30.30 1026 10 16 N/A
4:55 pm 16:55 Partly Cloudy 72 22 43 6 36 36 SE 6 9 30.30 1026 10 16 N/A
5:15 pm 17:15 Partly Cloudy 72 22 43 6 36 36 ENE 8 13 30.30 1026 10 16 N/A
5:35 pm 17:35 Mostly Cloudy 72 22 43 6 36 36 E 7 11 30.30 1026 10 16 N/A
5:55 pm 17:55 Cloudy 72 22 43 6 36 36 E 7 11 30.30 1026 10 16 N/A
6:15 pm 18:15 Cloudy 72 22 43 6 36 36 E 6 9 30.30 1026 10 16 N/A
6:35 pm 18:35 Mostly Cloudy 72 22 43 6 36 36 ENE 7 11 30.30 1026 10 16 N/A
6:55 pm 18:55 Partly Cloudy 70 21 43 6 38 38 ENE 5 7 30.30 1026 10 16 N/A
7:15 pm 19:15 Sunny 70 21 43 6 38 38 E 10 17 30.30 1026 10 16 N/A
7:35 pm 19:35 Sunny 68 20 43 6 40 40 ESE 5 7 30.30 1026 10 16 N/A
7:55 pm 19:55 Clear 66 19 43 6 43 43 E 6 9 30.30 1026 10 16 N/A
8:15 pm 20:15 Clear 64 18 43 6 46 46 E 5 7 30.30 1026 10 16 N/A
8:35 pm 20:35 Clear 64 18 43 6 46 46 ESE 6 9 30.30 1026 10 16 N/A
8:55 pm 20:55 Clear 64 18 43 6 46 46 ESE 6 9 30.33 1027 10 16 N/A
9:15 pm 21:15 Clear 63 17 45 7 52 52 ESE 7 11 30.33 1027 10 16 N/A
9:35 pm 21:35 Clear 63 17 46 8 56 56 ESE 5 7 30.33 1027 10 16 N/A
9:55 pm 21:55 Clear 63 17 46 8 56 56 SE 5 7 30.33 1027 10 16 N/A
10:15 pm 22:15 Clear 63 17 46 8 56 56 SE 5 7 30.36 1028 10 16 N/A
10:35 pm 22:35 Clear 63 17 46 8 56 56 ESE 3 6 30.36 1028 10 16 N/A
10:55 pm 22:55 Clear 61 16 45 7 55 55 SE 5 7 30.36 1028 10 16 N/A
11:15 pm 23:15 Clear 61 16 45 7 55 55 SE 7 11 30.36 1028 10 16 N/A
11:35 pm 23:35 Clear 61 16 45 7 55 55 SE 7 11 30.36 1028 10 16 N/A
11:55 pm 23:55 Clear 61 16 43 6 52 52 SSE 5 7 30.36 1028 10 16 N/A

Powered by AerisWeather